Location: Brodeslavy
(49.9527°N, 13.5567°E)
Time: 15:19:35
(UTC+00:00)

Cosmos 1850 Rocket - Pass Details

Date: 17 June 2025
Orbit: 750 x 781 km, 74.0° (Epoch: 20 July)

Event Time Altitude Azimuth Distance (km) Brightness Sun altitude
Exits shadow 23:21:07 28° 184° (S) 1,372 4.7 -16.6°
Maximum altitude 23:23:45 67° 110° (ESE) 817 4.0 -16.5°
Drops below altitude 10° 23:28:53 10° 28° (NNE) 2,283 7.5 -16.5°
Sets 23:31:16 0° 26° (NNE) 3,213 8.6 -16.4°
